sat.trackr.live / text

‹ back to catalog

STARLINK-35369

NORAD 68705 · 2026-081G

PAYLOAD ACTIVE UNKNOWN

§ Identity

Operator
Country
US
Launch date
2026-04-14
Launch site
AFETR
Launch vehicle
Mass (kg)
RCS (m²)

Purposes: comms

External: N2YO · Heavens-Above · Gunter

§ Orbital elements

Epoch: 2026-05-25T04:00:03.998880Z

Period
93.65 min
Inclination
53.1597°
Eccentricity
0.0000577
Mean motion
15.37693730 rev/d
Perigee alt
452.5 km
Apogee alt
453.3 km
Semi-major
6,831.1 km
B*
-7.7628e-2
RAAN
39.2813°
Arg perigee
55.1405°
Mean anomaly
30.2876°
Rev number
590

§ Raw data

STARLINK-353691 68705U 26081G   26145.16671295 -.02565329  00000+0 -77628-1 0  99922 68705  53.1597  39.2813 0000577  55.1405  30.2876 15.37693730  5907

JSON: /api/v1/satellites/68705 · /tle

For live sub-satellite position, see the globe view (requires WebGL).

§ Visibility from observer

Set your observer location to see the next 7 days of passes ≥ 10°. The values pass through the URL so the page stays shareable.

No JS? Fill the form by hand. The geolocation button needs JavaScript.